Location: Kumla
(59.1265°N, 15.1401°E)
Time: 21:52:08
(UTC+01:00)

A-11 Canister half - Visible Passes

Search period start: 06 December 2023 00:00
Search period end: 16 December 2023 00:00
Orbit: 1514 x 1686 km, 47.2° (Epoch: 05 December)

Date Brightness Start Highest point End Pass type
(mag) Time Alt. Az. Time Alt. Az. Time Alt. Az.
06 Dec 11.2 00:51:11 10° E 00:51:11 10° E 00:51:18 10° E visible
06 Dec 10.0 02:49:23 34° SE 02:49:23 34° SE 02:55:23 10° ESE visible
06 Dec 9.7 04:47:35 32° SW 04:49:35 35° SSW 04:58:20 10° SE visible
06 Dec 10.6 06:46:11 10° W 06:52:14 18° SW 06:58:22 10° S visible
07 Dec 10.3 02:27:46 28° SE 02:27:46 28° SE 02:32:27 10° ESE visible
07 Dec 9.7 04:25:59 35° SSW 04:26:42 36° SSW 04:35:30 10° SE visible
07 Dec 10.5 06:24:11 12° WSW 06:29:24 19° SW 06:35:47 10° S visible
08 Dec 10.6 02:06:11 22° ESE 02:06:11 22° ESE 02:09:31 10° ESE visible
08 Dec 9.7 04:04:24 36° SSW 04:04:24 36° SSW 04:12:38 10° SE visible
08 Dec 10.4 06:02:36 16° WSW 06:06:34 20° SW 06:13:10 10° S visible
09 Dec 10.8 01:44:38 17° ESE 01:44:38 17° ESE 01:46:35 10° ESE visible
09 Dec 9.9 03:42:50 34° S 03:42:50 34° S 03:49:46 10° SE visible
09 Dec 10.3 05:41:03 19° WSW 05:43:44 21° SW 05:50:33 10° S visible
10 Dec 11.1 01:23:07 12° ESE 01:23:07 12° ESE 01:23:38 10° ESE visible
10 Dec 10.1 03:21:19 30° SSE 03:21:19 30° SSE 03:26:55 10° SE visible
10 Dec 10.2 05:19:32 21° SW 05:20:52 22° SW 05:27:53 10° S visible
11 Dec 10.3 02:59:50 25° SSE 02:59:50 25° SSE 03:04:02 10° SE visible
11 Dec 10.2 04:58:03 23° SW 04:58:03 23° SW 05:05:13 10° S visible
12 Dec 10.6 02:38:23 20° SE 02:38:23 20° SE 02:41:10 10° SE visible
12 Dec 10.2 04:36:36 23° SSW 04:36:36 23° SSW 04:42:31 10° S visible
13 Dec 10.9 02:16:59 14° SE 02:16:59 14° SE 02:18:16 10° SE visible
13 Dec 10.3 04:15:12 22° SSW 04:15:12 22° SSW 04:19:49 10° SSE visible
14 Dec 10.5 03:53:50 19° S 03:53:50 19° S 03:57:04 10° SSE visible
15 Dec 10.7 03:32:31 15° S 03:32:31 15° S 03:34:20 10° SSE visible
